TOPSWRTT 000
TTAA00 KICT 051812

Wichita AWIPS Roundup
National Weather Service Wichita KS
1200 PM CST THU MAR 05 2015

....Central Kansas....
  
CITY           SKY/WX    TMP DP  RH WIND       PRES   REMARKS
RUSSELL        SUNNY     36  14  40 VRB3      30.41F                  
6HR MIN TEMP:   9; 6HR MAX TEMP:  36;                                

SALINA         SUNNY     35   9  33 SE8       30.49F WCI  29          
6HR MIN TEMP:  13; 6HR MAX TEMP:  35;                                

GREAT BEND     SUNNY     37  14  38 SW6       30.44S WCI  33          
6HR MIN TEMP:   9; 6HR MAX TEMP:  37;                                

ELLSWORTH      SUNNY     37  12  35 CALM      30.44S                  
MCPHERSON      SUNNY     36  12  38 S5        30.47F WCI  32          
HAYS           SUNNY     37  10  32 SW6       30.41F WCI  33          
6HR MIN TEMP:   7; 6HR MAX TEMP:  37;                                


....South Central Kansas....
  
CITY           SKY/WX    TMP DP  RH WIND       PRES   REMARKS
HUTCHINSON     SUNNY     34  16  47 S8        30.48F WCI  27          
6HR MIN TEMP:   8; 6HR MAX TEMP:  34;                                

NEWTON         SUNNY     30  14  51 S12       30.50F WCI  21          
6HR MIN TEMP:   9; 6HR MAX TEMP:  30;                                

KINGMAN        SUNNY     39  18  41 W16       30.47F WCI  30          
WICHITA (ICT)  SUNNY     37  15  40 W9        30.50F WCI  30          
6HR MIN TEMP:  10; 6HR MAX TEMP:  37;                                

JABARA ARPT    SUNNY     36  14  40 SW10      30.50F WCI  28          
6HR MIN TEMP:  12; 6HR MAX TEMP:  36;                                

MCCONNELL AFB  SUNNY     37  15  40 S10       30.50F WCI  30          
6HR MIN TEMP:  15; 6HR MAX TEMP:  37;                                

BENTON         FAIR      34  13  42 SW8       30.50F WCI  28          
6HR MIN TEMP:  10; 6HR MAX TEMP:  34;                                

EL DORADO      FAIR      36  16  44 SW8       30.50F WCI  29          
HARPER           N/A     40  13  33 W10G17    30.50S WCI  33          
WELLINGTON     SUNNY     39  12  33 SW9       30.52F WCI  33          
WINFIELD       SUNNY     38  13  35 SW9       30.54F WCI  31          
6HR MIN TEMP:  12; 6HR MAX TEMP:  38;                                

 
....Southeast Kansas....
  
CITY           SKY/WX    TMP DP  RH WIND       PRES   REMARKS
EUREKA         SUNNY     34  12  40 SE7       30.53S WCI  28          
CHANUTE        SUNNY     31  10  41 VRB3      30.56F                  
6HR MIN TEMP:  14; 6HR MAX TEMP:  31;                                

PARSONS        SUNNY     33  12  41 CALM      30.58F                  
6HR MIN TEMP:  10; 6HR MAX TEMP:  33;                                

COFFEYVILLE    SUNNY     32  11  41 CALM      30.58F                  
6HR MIN TEMP:  13; 6HR MAX TEMP:  32;                                

INDEPENDENCE   SUNNY     32  12  43 CALM      30.57F                  
FORT SCOTT     SUNNY     30   7  37 CALM      30.56F                  
PITTSBURG      SUNNY     31  11  44 NW5       30.56F WCI  26          

....Western Kansas....
  
CITY           SKY/WX    TMP DP  RH WIND       PRES   REMARKS
GOODLAND       SUNNY     41  11  29 SW9       30.30F WCI  35          
6HR MIN TEMP:  13; 6HR MAX TEMP:  42;                                

HILL CITY      SUNNY     36  11  35 VRB5      30.39F WCI  32          
6HR MIN TEMP:   3; 6HR MAX TEMP:  36;                                

LIBERAL        SUNNY     32  21  64 SW13      30.42F WCI  22          
6HR MIN TEMP:   7; 6HR MAX TEMP:  32; 6HR PCP:  0.01;                

GARDEN CITY    SUNNY     37  15  40 SW13      30.38F WCI  29          
6HR MIN TEMP:  12; 6HR MAX TEMP:  39;                                

DODGE CITY     SUNNY     38  14  37 SW14      30.41F WCI  30          
6HR MIN TEMP:  17; 6HR MAX TEMP:  39;                                

PRATT          SUNNY     36  18  48 SW12      30.47S WCI  27          
MEDICINE LODGE   N/A     40  14  34 W10G20    30.48F WCI  33          
6HR MIN TEMP:  10; 6HR MAX TEMP:  41;                                


....Northeast Kansas....
  
CITY           SKY/WX    TMP DP  RH WIND       PRES   REMARKS
CONCORDIA      SUNNY     29   6  38 S10       30.47F WCI  20          
6HR MIN TEMP:   5; 6HR MAX TEMP:  29;                                

TOPEKA         SUNNY     24   2  38 CALM      30.57F                  
6HR MIN TEMP:  10; 6HR MAX TEMP:  27;                                

MANHATTAN      SUNNY     29   4  34 VRB5      30.53F WCI  24          
6HR MIN TEMP:  10; 6HR MAX TEMP:  30;                                

LAWRENCE       SUNNY     25   0  33 CALM      30.58F                  
6HR MIN TEMP:   4; 6HR MAX TEMP:  26;                                

OLATHE         SUNNY     24  -1  33 CALM      30.55F                  
6HR MIN TEMP:  11; 6HR MAX TEMP:  24;                                

EMPORIA        SUNNY     28   9  44 VRB6      30.53F WCI  22          
6HR MIN TEMP:   9; 6HR MAX TEMP:  28;                                


....Oklahoma....
  
CITY           SKY/WX    TMP DP  RH WIND       PRES   REMARKS
GAGE           SUNNY     40  13  33 SW13G22   30.47F WCI  32          
6HR MIN TEMP:  12; 6HR MAX TEMP:  41;                                

PONCA CITY     SUNNY     36  15  42 SW10      30.56S WCI  28          
6HR MIN TEMP:   7; 6HR MAX TEMP:  36;                                

BARTLESVILLE   SUNNY     36  14  40 VRB3      30.59F                  
6HR MIN TEMP:   9; 6HR MAX TEMP:  36;                                

TULSA          SUNNY     37  15  40 CALM      30.57F                  
6HR MIN TEMP:  18; 6HR MAX TEMP:  38;                                

OKLAHOMA CITY  SUNNY     35  11  36 NW6       30.58S WCI  30          
6HR MIN TEMP:  10; 6HR MAX TEMP:  35;                                


Note: "fair" indicates few or no clouds below 12,000 feet with no
significant weather and/or obstructions to visibility.

USA.gov is the U.S. government's official web portal to all federal, state and local government web resources and services.